Location: Beccas
(43.4309°N, 0.1528°E)
Time: 09:38:32
(UTC+00:00)

Cosmos 389 Rocket - Pass Details

Date: 15 October 2021
Orbit: 439 x 468 km, 81.1° (Epoch: 02 December)

Event Time Altitude Azimuth Distance (km) Brightness Sun altitude
Rises 17:53:05 0° 169° (S) 2,412 6.0 -7.5°
Reaches altitude 10° 17:55:14 10° 160° (SSE) 1,548 5.0 -7.9°
Maximum altitude 17:58:18 33° 94° (E) 759 3.0 -8.4°
Drops below altitude 10° 18:01:24 10° 29° (NNE) 1,563 4.8 -9.0°
Sets 18:03:35 0° 20° (NNE) 2,441 5.9 -9.4°
